Other Surface Observations
Issued by NWS Tucson, AZ

Home | Current Version | Previous Version | Text Only | Print | Product List | Glossary On
Versions: 1 2 3 4 5 6 7 8 9 10 11 12 13 14 15 16 17 18 19 20 21 22 23 24 25 26 27 28 29 30 31 32 33 34 35 36 37 38 39 40 41 42 43 44 45 46 47 48 49 50
863
SXUS55 KTWC 290615
OSOTWC

WEATHER ROUNDUP FOR SOUTHEAST ARIZONA
NATIONAL WEATHER SERVICE TUCSON AZ
1115 PM MST FRI APR 28 2017

AZZ504>506-514-290715-
LOCATION       SKY/WX    TMP DP  RH WIND       PRES   REMARKS
TUCSON         CLEAR     65   1   8 NW16G25   29.82R
DAVIS-MONTHAN  PTCLDY    63   1   8 NW9       29.80R
CHILDRENS PARK N/A      N/A N/A   8 NW11              PIMA CO DEQ
ALVERNON/22ND  N/A       67 N/A N/A NW11              PIMA CO DEQ
CHERRY/GLENN   N/A      N/A N/A N/A N/A               PIMA CO DEQ
TANGERINE      N/A       66 N/A N/A NW15              PIMA CO DEQ
CONTL RANCH    N/A       67   4   8 NW11              PIMA CO DEQ
GRANT/1ST      N/A       67   4   8 NW11              PIMA CO DEQ
CRAYCROFT/22ND N/A       67   4   8 N/A               PIMA CO DEQ
GOLFLINKS/KOLB N/A      N/A N/A N/A N/A               PIMA CO DEQ
AJO/12TH       N/A       67   6   9 NW14              PIMA CO DEQ
FAIRGROUNDS    N/A       65 N/A N/A NW18              PIMA CO DEQ
SAGUARO        N/A       65   0   7 NW13G30           *SABINO CYN
SAN CARLOS     N/A       56  21  25 NE4               *SAN CARLOS
GREEN VALLEY   N/A       67   9  10 NW14              PIMA CO DEQ
HORSE CAMP CYN N/A       57   0   9 W15G32            *ARAVAIPA CYN
RINCON MTNS    N/A       38  -1  18 W7G20             *NR MANNING CAMP
$$

AZZ509>511-290715-
LOCATION       SKY/WX    TMP DP  RH WIND       PRES   REMARKS
SAFFORD        PTCLDY    60  10  14 NW22G36   29.68R
STRAY HORSE    N/A       32  19  58 N/A               *
TRAIL CABIN    N/A       40  22  49 NW4G10            *N OF GRANVILLE
BLACK HILLS    NOT AVBL
DRY LAKE       N/A       33  17  51 N5G14             *NATANES MTNS
NOON CREEK     N/A       56  -2   9 SW6G19            *PINALENO MTNS
COLUMBINE      N/A       32  -5  19 W9G25             *PINALENO MTNS
GUTHRIE        N/A       49  -2  11 W18G40            *SW OF GUTHRIE
$$

AZZ502-503-513-290715-
LOCATION       SKY/WX    TMP DP  RH WIND       PRES   REMARKS
NOGALES        CLOUDY    62  10  13 NW13G18   29.83R
SELLS          N/A       67   9  10 NE8G15            *
SASABE         N/A       63   8  11 N10G18            *ALTAR VLY
HOPKINS        N/A       44   1  16 NW20G30           *SANTA RITA MTNS
CARR CYN       N/A       56  38  50 NW3G14            *W OF HEREFORD
$$

AZZ507-508-512-290715-
LOCATION       SKY/WX    TMP DP  RH WIND       PRES   REMARKS
SIERRA VISTA   MOCLDY    57   1  10 W23       29.84R
DOUGLAS        PTCLDY    64  40  41 W18G28    29.78R
EMPIRE MTNS    NOT AVBL
MULESHOE RANCH N/A       57   0   9 NW17G31           *PRESERVE
HEADQUARTERS   NOT AVBL
$$

.............................NOTES.............................
THIS IS AN AUTOMATED COLLECTIVE WITH MINIMAL QUALITY CONTROL.
PIMA CO DEQ SITES HAVE NONSTANDARD WIND SENSOR HEIGHTS.
PIMA CO DEQ SITES DO NOT REPORT WIND GUSTS.
* INDICATES WIND SENSORS LOCATED AT 20 FEET INSTEAD OF 33 FEET.
..............................KEY..............................
SKY/WX - SKY CONDITION/WEATHER
TMP    - TEMPERATURE IN FAHRENHEIT
DP     - DEWPOINT IN FAHRENHEIT
RH     - RELATIVE HUMIDITY IN PERCENT
WIND   - DIRECTION AND SPEED IN MILES PER HOUR (MPH)
VRB    - VARIABLE WIND DIRECTION
PRES   - MEAN SEA LEVEL PRESSURE IN INCHES OF MERCURY
         F - FALLING PRESSURE   R - RISING PRESSURE
         S - STEADY PRESSURE
VSB    - VISIBILITY IN MILES
HX     - HEAT INDEX IN FAHRENHEIT
WCI    - WIND CHILL INDEX IN FAHRENHEIT
N/A    - NOT AVAILABLE
AFB    - AIR FORCE BASE
         DAVIS-MONTHAN IS DAVIS-MONTHAN AIR FORCE BASE
CYN    - CANYON
MTNS   - MOUNTAINS
NCA    - NATIONAL CONSERVATION AREA
NR     - NEAR
VLY    - VALLEY
CONTL  - CONTINENTAL
PIMA CO DEQ - PIMA COUNTY DEPT OF ENVIRONMENTAL QUALITY



USA.gov is the U.S. government's official web portal to all federal, state and local government web resources and services.